User: anonymous   Login
Location: Maddington
(51.2000°N, 1.9167°W)
Time: 22:16:24
(UTC+00:00)
Language:

Cosmos 909 Rocket - Orbit

View from above orbital plane
View from above orbital plane
View from above satellite
View from above satellite

Ground track
Ground track

The orbit data is extracted from the following two-line orbital elements,

1 10011U 77036B   20328.22193456 -.00000108  00000-0 -20094-3 0  9992
2 10011  65.8680  53.7693 0692490 107.3933 286.9601 12.32232996957852
Epoch (UTC): 23 November 2020 05:19:35
Eccentricity: 0.0692490
inclination: 65.8680°
perigee height: 991 km
apogee height: 2088 km
right ascension of ascending node: 53.7693°
argument of perigee: 107.3933°
revolutions per day: 12.32232996
mean anomaly at epoch: 286.9601°
orbit number at epoch: 95785

The dashed part of the orbit path shows where the satellite is in the earth's shadow,  

DLR